Location: Clarion
(42.7316°N, 93.7330°W)
Time: 09:30:09
(UTC+00:00)

Meteor 2-17 Rocket - Pass Details

Date: 22 April 2026
Orbit: 935 x 956 km, 82.5° (Epoch: 16 May)

Event Time Altitude Azimuth Distance (km) Brightness Sun altitude
Rises 04:00:31 0° 354° (N) 3,640 8.4 -27.2°
Reaches altitude 10° 04:03:04 10° 357° (N) 2,688 7.5 -27.5°
Enters shadow 04:09:09 67° 77° (ENE) 1,029 4.4 -28.1°
